Bright Ocean — HOGQ — position and weather

sailwx.info

Track history (hours):
 
Tides and Currents Weather Stations Pressure Air Temp Water Temp Dewpoint Dewpoint Depression Visibility Wind Speed Wind Dir Waves Ship Positions

Bright Ocean

Last reported at 2014-Aug-02 19:33 UTC. Time now 2014-Aug-23 13:28 UTC.
Position N 34°43' E 139°58'.
Warning: this ship's position is 20 days out of date.

Length 178 m; draft 6.5 m.

Type: Cargo ship. MMSI: 373816000.

Date/timePositionNaut miles runAvg speedWind from/ knotsBaromVisibWave heightAir tempDewpointWater temp
2014-Aug-02 19:33N 34°43' E 139°58'1312.7
2014-Aug-02 18:33N 34°51' E 140°10'1313.1
2014-Aug-02 17:33N 34°60' E 140°22'1212.4
2014-Aug-02 16:33N 35°08' E 140°34'1211.7
2014-Aug-02 15:33N 35°16' E 140°44'1212.0
2014-Aug-02 14:33N 35°25' E 140°54'1212.1
2014-Aug-02 13:34N 35°35' E 141°02'1413.8
2014-Aug-02 12:33N 35°49' E 141°00'1413.8
2014-Aug-02 11:33N 35°59' E 140°48'7 7.2
2014-Aug-02 10:33N 35°55' E 140°41'0 0.1
2014-Aug-02 05:30N 35°55' E 140°40'0 0.0
2014-Aug-02 04:06N 35°55' E 140°40'0 0.0
2014-Aug-02 03:24N 35°55' E 140°40'0 0.0
2014-Aug-01 22:21N 35°55' E 140°40'0 0.0
2014-Aug-01 21:12N 35°55' E 140°40'0 0.0
2014-Aug-01 19:18N 35°55' E 140°40'0 0.0
2014-Aug-01 18:30N 35°55' E 140°40'0 0.0
2014-Aug-01 17:18N 35°55' E 140°40'0 0.0
2014-Aug-01 16:30N 35°55' E 140°40'0 0.0
2014-Aug-01 09:30N 35°55' E 140°40'0 0.0
2014-Aug-01 07:24N 35°55' E 140°40'0 0.0
2014-Jul-31 22:33N 35°55' E 140°40'8 7.5
2014-Jul-31 21:33N 36°01' E 140°47'7 7.1
2014-Jul-31 20:33N 36°04' E 140°54'5 4.8
2014-Jul-31 19:33N 36°06' E 140°60'1 0.6
2014-Jul-31 18:33N 36°06' E 141°00'1 0.5
2014-Jul-31 17:33N 36°07' E 141°01'1 0.5
2014-Jul-31 16:33N 36°07' E 141°01'1 0.5
2014-Jul-31 15:31N 36°07' E 141°02'0 0.3
2014-Jul-31 14:33N 36°08' E 141°02'0 0.2
2014-Jul-31 13:33N 36°08' E 141°02'0 0.2
2014-Jul-31 12:33N 36°08' E 141°02'0 0.1
2014-Jul-31 11:08N 36°08' E 141°02'0 0.4
2014-Jul-31 10:33N 36°08' E 141°02'1 0.6
2014-Jul-31 09:31N 36°07' E 141°02'1 0.6
2014-Jul-31 08:16N 36°06' E 141°02'1 0.5
2014-Jul-31 06:22N 36°05' E 141°02'1 0.7
2014-Jul-31 04:26N 36°04' E 141°02'5 5.0
2014-Jul-31 03:27N 36°02' E 141°08'1211.8
2014-Jul-31 02:27N 35°59' E 141°22'3 0.3
2014-Jul-30 13:29N 35°57' E 141°18'1 0.6
2014-Jul-30 12:23N 35°57' E 141°17'0 0.5
2014-Jul-30 11:29N 35°57' E 141°17'0 0.4
2014-Jul-30 10:20N 35°56' E 141°16'0 0.1
2014-Jul-30 09:05N 35°56' E 141°17'1 0.1
2014-Jul-29 22:11N 35°57' E 141°16'1 0.7
2014-Jul-29 21:05N 35°58' E 141°16'1 0.8
2014-Jul-29 20:17N 35°59' E 141°16'1 0.8
2014-Jul-29 19:05N 35°59' E 141°16'1 0.9
2014-Jul-29 18:17N 35°60' E 141°15'1 0.6
2014-Jul-29 17:17N 36°00' E 141°14'1 0.3
2014-Jul-29 15:05N 35°60' E 141°13'0 0.4
2014-Jul-29 14:32N 35°60' E 141°13'0 0.2
2014-Jul-29 12:23N 35°59' E 141°13'0 0.3
2014-Jul-29 11:29N 35°59' E 141°14'0 0.2
2014-Jul-29 10:32N 35°59' E 141°14'4 0.4
2014-Jul-29 00:28N 36°03' E 141°14'7 3.5
2014-Jul-28 22:32N 36°01' E 141°06'0 0.2
2014-Jul-28 21:33N 36°02' E 141°06'0 0.4
2014-Jul-28 20:33N 36°02' E 141°07'0 0.3
2014-Jul-28 19:33N 36°02' E 141°07'0 0.3
2014-Jul-28 18:33N 36°02' E 141°07'0 0.3
2014-Jul-28 17:15N 36°03' E 141°07'0 0.2
2014-Jul-28 16:34N 36°03' E 141°07'0 0.1
2014-Jul-28 15:33N 36°03' E 141°07'0 0.4
2014-Jul-28 14:34N 36°03' E 141°08'0 0.5
2014-Jul-28 13:33N 36°02' E 141°08'1 0.5
2014-Jul-28 12:33N 36°02' E 141°09'0 0.3
2014-Jul-28 11:34N 36°02' E 141°09'0 0.3
2014-Jul-28 10:33N 36°02' E 141°10'0 0.5
2014-Jul-28 09:33N 36°02' E 141°10'1 0.5
2014-Jul-28 08:33N 36°03' E 141°11'1 0.5
2014-Jul-28 07:33N 36°03' E 141°11'1 0.5
2014-Jul-28 05:27N 36°04' E 141°11'1 0.7
2014-Jul-28 04:33N 36°05' E 141°10'12 0.3
2014-Jul-26 12:22N 35°59' E 141°23'3 1.6
2014-Jul-26 10:22N 35°59' E 141°19'11 6.0
2014-Jul-26 08:32N 35°58' E 141°05'9 7.0
2014-Jul-26 07:12N 35°58' E 140°54'0 0.5
2014-Jul-26 06:30N 35°58' E 140°54'1 0.3
2014-Jul-26 04:12N 35°58' E 140°55'0 0.2
2014-Jul-26 03:12N 35°58' E 140°55'0 0.3
2014-Jul-26 02:30N 35°58' E 140°55'0 0.3
2014-Jul-26 01:30N 35°58' E 140°54'0 0.2
2014-Jul-26 00:27N 35°59' E 140°54'0 0.1
2014-Jul-25 23:18N 35°59' E 140°54'0 0.3
2014-Jul-25 21:33N 35°59' E 140°55'0 0.3
2014-Jul-25 20:21N 35°59' E 140°55'0 0.4
2014-Jul-25 19:33N 35°59' E 140°56'0 0.3
2014-Jul-25 18:30N 35°59' E 140°56'0 0.4
2014-Jul-25 17:21N 35°60' E 140°56'0 0.5
2014-Jul-25 16:33N 36°00' E 140°56'1 0.5
2014-Jul-25 15:18N 36°01' E 140°55'1 0.7
2014-Jul-25 14:30N 36°01' E 140°55'1 0.5
2014-Jul-25 12:24N 36°02' E 140°54'0 0.2
2014-Jul-25 11:12N 36°02' E 140°53'0 0.3
2014-Jul-25 10:27N 36°02' E 140°53'0 0.1
2014-Jul-25 09:21N 36°02' E 140°53'0 0.2
2014-Jul-25 07:22N 36°02' E 140°54'0 0.6
2014-Jul-25 06:33N 36°02' E 140°54'4 3.6
2014-Jul-25 05:34N 35°59' E 140°52'1313.1
2014-Jul-25 04:33N 35°47' E 141°00'1312.8
2014-Jul-25 03:33N 35°35' E 140°56'1413.7
2014-Jul-25 02:33N 35°22' E 140°50'1414.3
2014-Jul-25 01:33N 35°10' E 140°39'1515.1
2014-Jul-25 00:33N 35°01' E 140°25'1615.9
2014-Jul-24 23:34N 34°50' E 140°11'1716.9
2014-Jul-24 22:33N 34°37' E 139°58'1616.2
2014-Jul-24 21:33N 34°26' E 139°44'1716.6
2014-Jul-24 20:33N 34°17' E 139°27'  
Track history (hours):
 
Tides and Currents Weather Stations Pressure Air Temp Water Temp Dewpoint Dewpoint Depression Visibility Wind Speed Wind Dir Waves Ship Positions

Bright Ocean

Last reported at 2014-Aug-02 19:33 UTC. Time now 2014-Aug-23 13:28 UTC.
Position N 34°43' E 139°58'.
Warning: this ship's position is 20 days out of date.

Length 178 m; draft 6.5 m.

Type: Cargo ship. MMSI: 373816000.

Date/timePositionNaut miles runAvg speedWind from/ knotsBaromVisibWave heightAir tempDewpointWater temp
2014-Aug-02 19:33N 34°43' E 139°58'1312.7
2014-Aug-02 18:33N 34°51' E 140°10'1313.1
2014-Aug-02 17:33N 34°60' E 140°22'1212.4
2014-Aug-02 16:33N 35°08' E 140°34'1211.7
2014-Aug-02 15:33N 35°16' E 140°44'1212.0
2014-Aug-02 14:33N 35°25' E 140°54'1212.1
2014-Aug-02 13:34N 35°35' E 141°02'1413.8
2014-Aug-02 12:33N 35°49' E 141°00'1413.8
2014-Aug-02 11:33N 35°59' E 140°48'7 7.2
2014-Aug-02 10:33N 35°55' E 140°41'0 0.1
2014-Aug-02 05:30N 35°55' E 140°40'0 0.0
2014-Aug-02 04:06N 35°55' E 140°40'0 0.0
2014-Aug-02 03:24N 35°55' E 140°40'0 0.0
2014-Aug-01 22:21N 35°55' E 140°40'0 0.0
2014-Aug-01 21:12N 35°55' E 140°40'0 0.0
2014-Aug-01 19:18N 35°55' E 140°40'0 0.0
2014-Aug-01 18:30N 35°55' E 140°40'0 0.0
2014-Aug-01 17:18N 35°55' E 140°40'0 0.0
2014-Aug-01 16:30N 35°55' E 140°40'0 0.0
2014-Aug-01 09:30N 35°55' E 140°40'0 0.0
2014-Aug-01 07:24N 35°55' E 140°40'0 0.0
2014-Jul-31 22:33N 35°55' E 140°40'8 7.5
2014-Jul-31 21:33N 36°01' E 140°47'7 7.1
2014-Jul-31 20:33N 36°04' E 140°54'5 4.8
2014-Jul-31 19:33N 36°06' E 140°60'1 0.6
2014-Jul-31 18:33N 36°06' E 141°00'1 0.5
2014-Jul-31 17:33N 36°07' E 141°01'1 0.5
2014-Jul-31 16:33N 36°07' E 141°01'1 0.5
2014-Jul-31 15:31N 36°07' E 141°02'0 0.3
2014-Jul-31 14:33N 36°08' E 141°02'0 0.2
2014-Jul-31 13:33N 36°08' E 141°02'0 0.2
2014-Jul-31 12:33N 36°08' E 141°02'0 0.1
2014-Jul-31 11:08N 36°08' E 141°02'0 0.4
2014-Jul-31 10:33N 36°08' E 141°02'1 0.6
2014-Jul-31 09:31N 36°07' E 141°02'1 0.6
2014-Jul-31 08:16N 36°06' E 141°02'1 0.5
2014-Jul-31 06:22N 36°05' E 141°02'1 0.7
2014-Jul-31 04:26N 36°04' E 141°02'5 5.0
2014-Jul-31 03:27N 36°02' E 141°08'1211.8
2014-Jul-31 02:27N 35°59' E 141°22'3 0.3
2014-Jul-30 13:29N 35°57' E 141°18'1 0.6
2014-Jul-30 12:23N 35°57' E 141°17'0 0.5
2014-Jul-30 11:29N 35°57' E 141°17'0 0.4
2014-Jul-30 10:20N 35°56' E 141°16'0 0.1
2014-Jul-30 09:05N 35°56' E 141°17'1 0.1
2014-Jul-29 22:11N 35°57' E 141°16'1 0.7
2014-Jul-29 21:05N 35°58' E 141°16'1 0.8
2014-Jul-29 20:17N 35°59' E 141°16'1 0.8
2014-Jul-29 19:05N 35°59' E 141°16'1 0.9
2014-Jul-29 18:17N 35°60' E 141°15'1 0.6
2014-Jul-29 17:17N 36°00' E 141°14'1 0.3
2014-Jul-29 15:05N 35°60' E 141°13'0 0.4
2014-Jul-29 14:32N 35°60' E 141°13'0 0.2
2014-Jul-29 12:23N 35°59' E 141°13'0 0.3
2014-Jul-29 11:29N 35°59' E 141°14'0 0.2
2014-Jul-29 10:32N 35°59' E 141°14'4 0.4
2014-Jul-29 00:28N 36°03' E 141°14'7 3.5
2014-Jul-28 22:32N 36°01' E 141°06'0 0.2
2014-Jul-28 21:33N 36°02' E 141°06'0 0.4
2014-Jul-28 20:33N 36°02' E 141°07'0 0.3
2014-Jul-28 19:33N 36°02' E 141°07'0 0.3
2014-Jul-28 18:33N 36°02' E 141°07'0 0.3
2014-Jul-28 17:15N 36°03' E 141°07'0 0.2
2014-Jul-28 16:34N 36°03' E 141°07'0 0.1
2014-Jul-28 15:33N 36°03' E 141°07'0 0.4
2014-Jul-28 14:34N 36°03' E 141°08'0 0.5
2014-Jul-28 13:33N 36°02' E 141°08'1 0.5
2014-Jul-28 12:33N 36°02' E 141°09'0 0.3
2014-Jul-28 11:34N 36°02' E 141°09'0 0.3
2014-Jul-28 10:33N 36°02' E 141°10'0 0.5
2014-Jul-28 09:33N 36°02' E 141°10'1 0.5
2014-Jul-28 08:33N 36°03' E 141°11'1 0.5
2014-Jul-28 07:33N 36°03' E 141°11'1 0.5
2014-Jul-28 05:27N 36°04' E 141°11'1 0.7
2014-Jul-28 04:33N 36°05' E 141°10'12 0.3
2014-Jul-26 12:22N 35°59' E 141°23'3 1.6
2014-Jul-26 10:22N 35°59' E 141°19'11 6.0
2014-Jul-26 08:32N 35°58' E 141°05'9 7.0
2014-Jul-26 07:12N 35°58' E 140°54'0 0.5
2014-Jul-26 06:30N 35°58' E 140°54'1 0.3
2014-Jul-26 04:12N 35°58' E 140°55'0 0.2
2014-Jul-26 03:12N 35°58' E 140°55'0 0.3
2014-Jul-26 02:30N 35°58' E 140°55'0 0.3
2014-Jul-26 01:30N 35°58' E 140°54'0 0.2
2014-Jul-26 00:27N 35°59' E 140°54'0 0.1
2014-Jul-25 23:18N 35°59' E 140°54'0 0.3
2014-Jul-25 21:33N 35°59' E 140°55'0 0.3
2014-Jul-25 20:21N 35°59' E 140°55'0 0.4
2014-Jul-25 19:33N 35°59' E 140°56'0 0.3
2014-Jul-25 18:30N 35°59' E 140°56'0 0.4
2014-Jul-25 17:21N 35°60' E 140°56'0 0.5
2014-Jul-25 16:33N 36°00' E 140°56'1 0.5
2014-Jul-25 15:18N 36°01' E 140°55'1 0.7
2014-Jul-25 14:30N 36°01' E 140°55'1 0.5
2014-Jul-25 12:24N 36°02' E 140°54'0 0.2
2014-Jul-25 11:12N 36°02' E 140°53'0 0.3
2014-Jul-25 10:27N 36°02' E 140°53'0 0.1
2014-Jul-25 09:21N 36°02' E 140°53'0 0.2
2014-Jul-25 07:22N 36°02' E 140°54'0 0.6
2014-Jul-25 06:33N 36°02' E 140°54'4 3.6
2014-Jul-25 05:34N 35°59' E 140°52'1313.1
2014-Jul-25 04:33N 35°47' E 141°00'1312.8
2014-Jul-25 03:33N 35°35' E 140°56'1413.7
2014-Jul-25 02:33N 35°22' E 140°50'1414.3
2014-Jul-25 01:33N 35°10' E 140°39'1515.1
2014-Jul-25 00:33N 35°01' E 140°25'1615.9
2014-Jul-24 23:34N 34°50' E 140°11'1716.9
2014-Jul-24 22:33N 34°37' E 139°58'1616.2
2014-Jul-24 21:33N 34°26' E 139°44'1716.6
2014-Jul-24 20:33N 34°17' E 139°27'  

Dump ship's entire track history